TimePDT,TemperatureF,Dew PointF,Humidity,Sea Level PressureIn,VisibilityMPH,Wind Direction,Wind SpeedMPH,Gust SpeedMPH,PrecipitationIn,Events,Conditions,WindDirDegrees,DateUTC
12:15 AM,69.8,46.4,43,30.02,10.0,Calm,Calm,-,N/A,,Clear,0,2013-07-23 07:15:00
12:35 AM,71.6,48.2,43,30.02,10.0,Calm,Calm,-,N/A,,Clear,0,2013-07-23 07:35:00
12:55 AM,69.8,48.2,46,30.02,10.0,Calm,Calm,-,N/A,,Clear,0,2013-07-23 07:55:00
1:15 AM,69.8,48.2,46,30.03,10.0,North,3.5,-,N/A,,Clear,10,2013-07-23 08:15:00
1:35 AM,68.0,50.0,52,30.03,10.0,Calm,Calm,-,N/A,,Clear,0,2013-07-23 08:35:00
1:55 AM,68.0,50.0,52,30.03,10.0,NNE,4.6,-,N/A,,Clear,20,2013-07-23 08:55:00
2:15 AM,66.2,50.0,56,30.03,10.0,Calm,Calm,-,N/A,,Clear,0,2013-07-23 09:15:00
2:35 AM,66.2,50.0,56,30.03,10.0,Calm,Calm,-,N/A,,Clear,0,2013-07-23 09:35:00
2:55 AM,66.2,50.0,56,30.03,10.0,North,3.5,-,N/A,,Clear,10,2013-07-23 09:55:00
3:15 AM,66.2,48.2,52,30.03,10.0,North,3.5,-,N/A,,Clear,10,2013-07-23 10:15:00
3:35 AM,64.4,50.0,59,30.03,10.0,Calm,Calm,-,N/A,,Clear,0,2013-07-23 10:35:00
3:55 AM,64.4,50.0,59,30.03,10.0,Calm,Calm,-,N/A,,Clear,0,2013-07-23 10:55:00
4:15 AM,64.4,50.0,59,30.03,10.0,Calm,Calm,-,N/A,,Clear,0,2013-07-23 11:15:00
4:35 AM,64.4,50.0,59,30.03,10.0,North,3.5,-,N/A,,Clear,10,2013-07-23 11:35:00
4:55 AM,64.4,50.0,59,30.04,10.0,Calm,Calm,-,N/A,,Clear,0,2013-07-23 11:55:00
5:15 AM,64.4,51.8,64,30.03,10.0,Calm,Calm,-,N/A,,Clear,0,2013-07-23 12:15:00
5:35 AM,64.4,50.0,59,30.03,10.0,NNE,3.5,-,N/A,,Clear,30,2013-07-23 12:35:00
5:55 AM,62.6,51.8,68,30.04,10.0,Calm,Calm,-,N/A,,Clear,0,2013-07-23 12:55:00
6:15 AM,62.6,51.8,68,30.04,10.0,Calm,Calm,-,N/A,,Clear,0,2013-07-23 13:15:00
6:35 AM,62.6,51.8,68,30.05,10.0,Calm,Calm,-,N/A,,Clear,0,2013-07-23 13:35:00
6:55 AM,62.6,51.8,68,30.04,10.0,Calm,Calm,-,N/A,,Clear,0,2013-07-23 13:55:00
7:15 AM,64.4,53.6,68,30.05,10.0,Calm,Calm,-,N/A,,Clear,0,2013-07-23 14:15:00
7:35 AM,66.2,53.6,64,30.05,10.0,Calm,Calm,-,N/A,,Clear,0,2013-07-23 14:35:00
7:55 AM,68.0,55.4,64,30.05,10.0,Calm,Calm,-,N/A,,Clear,0,2013-07-23 14:55:00
8:15 AM,66.2,53.6,64,30.05,10.0,SW,5.8,-,N/A,,Clear,220,2013-07-23 15:15:00
8:35 AM,69.8,53.6,56,30.06,10.0,Calm,Calm,-,N/A,,Clear,0,2013-07-23 15:35:00
8:55 AM,71.6,53.6,53,30.06,10.0,Calm,Calm,-,N/A,,Clear,0,2013-07-23 15:55:00
9:15 AM,73.4,53.6,50,30.05,10.0,Calm,Calm,-,N/A,,Clear,0,2013-07-23 16:15:00
9:35 AM,75.2,53.6,47,30.05,10.0,Calm,Calm,-,N/A,,Clear,0,2013-07-23 16:35:00
9:55 AM,75.2,53.6,47,30.05,10.0,Calm,Calm,-,N/A,,Clear,0,2013-07-23 16:55:00
10:15 AM,75.2,53.6,47,30.05,10.0,SSW,3.5,-,N/A,,Clear,200,2013-07-23 17:15:00
10:35 AM,77.0,53.6,44,30.05,10.0,Calm,Calm,-,N/A,,Clear,0,2013-07-23 17:35:00
10:55 AM,78.8,53.6,42,30.05,10.0,Calm,Calm,-,N/A,,Clear,0,2013-07-23 17:55:00
11:15 AM,80.6,53.6,39,30.04,10.0,Calm,Calm,-,N/A,,Clear,0,2013-07-23 18:15:00
11:35 AM,82.4,53.6,37,30.04,10.0,Calm,Calm,-,N/A,,Clear,0,2013-07-23 18:35:00
11:55 AM,84.2,51.8,33,30.03,10.0,Calm,Calm,-,N/A,,Clear,0,2013-07-23 18:55:00
12:15 PM,86.0,51.8,31,30.02,10.0,Calm,Calm,-,N/A,,Clear,0,2013-07-23 19:15:00
12:35 PM,86.0,51.8,31,30.02,10.0,South,4.6,-,N/A,,Clear,190,2013-07-23 19:35:00
1:15 PM,89.6,53.6,29,30.00,10.0,South,3.5,-,N/A,,Clear,180,2013-07-23 20:15:00
1:35 PM,89.6,53.6,29,30.00,10.0,SSE,3.5,-,N/A,,Clear,160,2013-07-23 20:35:00
1:55 PM,93.2,53.6,26,29.99,10.0,SSW,3.5,-,N/A,,Clear,210,2013-07-23 20:55:00
2:15 PM,93.2,53.6,26,29.99,10.0,SSW,4.6,-,N/A,,Clear,200,2013-07-23 21:15:00
2:35 PM,93.2,53.6,26,29.99,10.0,NW,6.9,-,N/A,,Clear,310,2013-07-23 21:35:00
2:55 PM,93.2,53.6,26,29.99,10.0,SW,10.4,16.1,N/A,,Clear,230,2013-07-23 21:55:00
3:15 PM,93.2,53.6,26,29.99,10.0,WSW,9.2,-,N/A,,Clear,250,2013-07-23 22:15:00
3:35 PM,91.4,50.0,24,29.99,10.0,SW,8.1,-,N/A,,Clear,220,2013-07-23 22:35:00
3:55 PM,93.2,50.0,23,29.99,10.0,West,5.8,-,N/A,,Clear,280,2013-07-23 22:55:00
4:15 PM,93.2,50.0,23,29.98,10.0,WSW,6.9,-,N/A,,Clear,240,2013-07-23 23:15:00
4:35 PM,93.2,50.0,23,29.98,10.0,SW,8.1,-,N/A,,Clear,220,2013-07-23 23:35:00
4:55 PM,93.2,48.2,21,29.98,10.0,WSW,6.9,-,N/A,,Clear,240,2013-07-23 23:55:00
5:15 PM,93.2,48.2,21,29.98,10.0,WNW,5.8,-,N/A,,Clear,300,2013-07-24 00:15:00
5:35 PM,91.4,48.2,23,29.98,10.0,WSW,4.6,-,N/A,,Clear,250,2013-07-24 00:35:00
5:55 PM,91.4,48.2,23,29.98,10.0,West,9.2,-,N/A,,Clear,270,2013-07-24 00:55:00
6:15 PM,91.4,46.4,21,29.98,10.0,WNW,6.9,-,N/A,,Clear,290,2013-07-24 01:15:00
6:35 PM,91.4,48.2,23,29.98,10.0,SW,4.6,-,N/A,,Clear,230,2013-07-24 01:35:00
6:55 PM,91.4,46.4,21,29.98,10.0,WSW,6.9,-,N/A,,Clear,240,2013-07-24 01:55:00
7:15 PM,91.4,46.4,21,29.98,10.0,WSW,6.9,-,N/A,,Clear,240,2013-07-24 02:15:00
7:35 PM,89.6,46.4,22,29.99,10.0,West,4.6,-,N/A,,Clear,280,2013-07-24 02:35:00
7:55 PM,87.8,48.2,25,29.99,10.0,West,5.8,-,N/A,,Clear,280,2013-07-24 02:55:00
8:15 PM,86.0,48.2,27,29.99,10.0,SSW,4.6,-,N/A,,Clear,200,2013-07-24 03:15:00
8:35 PM,86.0,46.4,25,30.00,10.0,West,5.8,-,N/A,,Clear,270,2013-07-24 03:35:00
8:55 PM,84.2,48.2,29,30.01,10.0,SSW,6.9,-,N/A,,Clear,200,2013-07-24 03:55:00
9:15 PM,84.2,46.4,27,30.02,10.0,SSW,6.9,-,N/A,,Clear,210,2013-07-24 04:15:00
9:35 PM,84.2,46.4,27,30.02,10.0,South,5.8,-,N/A,,Clear,190,2013-07-24 04:35:00
9:55 PM,84.2,44.6,25,30.03,10.0,SW,4.6,-,N/A,,Clear,220,2013-07-24 04:55:00
10:15 PM,82.4,46.4,28,30.03,10.0,SW,4.6,-,N/A,,Clear,230,2013-07-24 05:15:00
10:35 PM,78.8,50.0,36,30.03,10.0,Calm,Calm,-,N/A,,Clear,0,2013-07-24 05:35:00
10:55 PM,75.2,50.0,41,30.04,10.0,Calm,Calm,-,N/A,,Clear,0,2013-07-24 05:55:00
11:15 PM,75.2,51.8,44,30.04,10.0,NNE,3.5,-,N/A,,Clear,20,2013-07-24 06:15:00
11:35 PM,73.4,50.0,44,30.04,10.0,Calm,Calm,-,N/A,,Clear,0,2013-07-24 06:35:00
11:55 PM,71.6,48.2,43,30.04,10.0,Calm,Calm,-,N/A,,Clear,0,2013-07-24 06:55:00